STARLINK-2579, 48459

Orbit data source: Space-Track

STARLINK-2579, 48459 is a payload satellite owned by SpaceX/Seattle (US) in LEO that was launched on Sun, 09 May 2021 UTC via an FALCON 9 launch vehicle from the Air Force Eastern Test Range (AFETR). Payload-class satellites include a variety of spacecraft equipped with specific instruments for various scientific and technological missions. These include communications satellites like Starlink; space stations such as the ISS; scientific satellites like the Hubble; Earth observation satellites from companies like Planet Labs, Umbra, and HawkEye 360; GPS; miniature CubeSats for education and research; and military/defense satellites.

Loading next visibility...
Identifier
48459, 2021-040AH
Orbit
LEO
Country
Flag of USUS
Related business
Manufacturer
SpaceX/Seattle
Mission
Operational Commercial Communications
Bus & Motor
STARLINK, Unknown motor
Mass
260 kg wet, ~248 kg dry
Launch date (UTC)
2021-05-09 (5 years ago)
Launch vehicle
FALCON 9
Launch site
Air Force Eastern Test Range (AFETR)
Object type
Payload
Rocket body
Debris
Shape & HBR
Box + 1 Pan, 10.1 m
Radar Cross Section
13.562 m², Large (>1 m²)

Expand to show TLE details & history
Last TLE update: 2 days ago

TLE from 2 days ago
0 STARLINK-2579
1 48459U 21040AH  26171.40422084  .00001800  00000-0  69737-4 0  9993
2 48459  53.1610  60.3084 0001226  90.9103 269.2039 15.31704615282435
Epoch: 2026-06-20T09:42Z
TLE epoch observation values (Epoch: 2026-06-20T09:42:04.680Z)
Latitude
-0.00002°
Longitude
6.16956°
Altitude
471.638 km
Speed
7.631 km/s
True Right ascension
04h 01m 14s
True Declination
0° 00' 00"
Sunlit
Object was in daylight at epoch
Visualization orbit readout
Latitude
Unknown
Longitude
Unknown
Altitude
Unknown
Speed
Unknown
Apparent Right ascension
Unknown
Apparent Declination
Unknown
Sunlit
N/A
Visualization observer readout
Local Sidereal Time
21:25:46
Azimuth
Unknown
Elevation
Unknown
Doppler factor
Unknown
Orbital elements
Apogee altitude
471.822 km
Perigee altitude
470.143 km
Semi-major axis
6,849.12 km
Eccentricity
0.00012
Inclination
53.161°
RAAN
60.3084°
Arg. of periapsis
90.9103°
True anomaly
269.18985°
Mean anomaly
269.2039°
Eccentric anomaly
269.19688°
Mean motion
3.82905 °/min
Orbital period
94.02 mins
BSTAR
0.000069737
Loading maneuver chart data...
Computing Atmospheric mass density...

Documentation

Showing up to 5 results
|